Location: Unspecified
(0.0000°N, 0.0000°E)
Time: 18:17:45
(UTC+00:00)

Hubble Space Telescope - Pass Details

Date: 01 June 2019
Orbit: 536 x 540 km, 28.5° (Epoch: 18 August)

Event Time Altitude Azimuth Distance (km) Brightness Sun altitude
Rises 18:33:29 0° 267° (W) 2,675 5.7 -8.2°
Reaches altitude 10° 18:36:34 10° 243° (WSW) 1,785 4.0 -9.0°
Maximum altitude 18:38:57 15° 208° (SSW) 1,500 3.1 -9.5°
Drops below altitude 10° 18:41:20 10° 172° (S) 1,785 3.1 -10.1°
Enters shadow 18:42:50 - 158° (SSE) 2,174 3.4 -10.4°
